Previsão horária em Ablis

Hoje, 24 Janeiro, Domingo

Tempo Temperatura Precipitação Vento Pressão Humidade
00:00 -1°C° 0 mm 2 m/s 736 mmHg 91%
01:00 -1°C° 0 mm 2 m/s 736 mmHg 91%
02:00 -1°C° 0 mm 2 m/s 736 mmHg 91%
03:00 -2°C° 0 mm 2 m/s 736 mmHg 91%
04:00 -1°C° 0 mm 3 m/s 736 mmHg 90%
05:00 -1°C° 0 mm 3 m/s 736 mmHg 89%
06:00 0°C° 0 mm 3 m/s 736 mmHg 88%
07:00 -1°C° 1.2 mm 4 m/s 735 mmHg 90%
08:00 -1°C° 1.2 mm 5 m/s 735 mmHg 93%
09:00 -1°C° 1.2 mm 5 m/s 735 mmHg 96%
10:00 -1°C° 0.1 mm 5 m/s 734 mmHg 94%
11:00 -1°C° 0.1 mm 6 m/s 734 mmHg 91%
12:00 +1°C° 0.1 mm 6 m/s 734 mmHg 89%
13:00 +1°C° 0.1 mm 6 m/s 734 mmHg 86%
14:00 +1°C° 0.1 mm 6 m/s 734 mmHg 83%
15:00 +1°C° 0.1 mm 6 m/s 734 mmHg 80%
16:00 -1°C° 0 mm 6 m/s 735 mmHg 83%
17:00 -1°C° 0 mm 6 m/s 735 mmHg 87%
18:00 -2°C° 0 mm 6 m/s 736 mmHg 90%
19:00 -2°C° 0 mm 6 m/s 737 mmHg 89%
20:00 -2°C° 0 mm 5 m/s 738 mmHg 89%
21:00 -2°C° 0 mm 5 m/s 738 mmHg 88%
22:00 -2°C° 0 mm 4 m/s 739 mmHg 88%
23:00 -2°C° 0 mm 4 m/s 740 mmHg 88%

Amanhã, 25 Janeiro, Segunda-feira

Tempo Temperatura Precipitação Vento Pressão Humidade
00:00 -2°C° 0 mm 4 m/s 741 mmHg 88%
01:00 -3°C° 0 mm 4 m/s 741 mmHg 89%
02:00 -2°C° 0 mm 3 m/s 742 mmHg 89%
03:00 -2°C° 0 mm 3 m/s 742 mmHg 90%
04:00 -3°C° 0 mm 4 m/s 743 mmHg 88%
05:00 -2°C° 0 mm 4 m/s 743 mmHg 87%
06:00 -2°C° 0 mm 5 m/s 743 mmHg 85%
07:00 -2°C° 0 mm 5 m/s 743 mmHg 84%
08:00 -2°C° 0 mm 6 m/s 744 mmHg 82%
09:00 -2°C° 0 mm 6 m/s 744 mmHg 80%
10:00 +1°C° 0 mm 6 m/s 744 mmHg 78%
11:00 +2°C° 0 mm 7 m/s 745 mmHg 75%
12:00 +3°C° 0 mm 7 m/s 745 mmHg 72%
13:00 +3°C° 0 mm 6 m/s 745 mmHg 76%
14:00 +2°C° 0 mm 6 m/s 745 mmHg 80%
15:00 +2°C° 0 mm 5 m/s 745 mmHg 84%
16:00 +1°C° 0 mm 5 m/s 746 mmHg 86%
17:00 0°C° 0 mm 4 m/s 746 mmHg 89%
18:00 +1°C° 0 mm 3 m/s 747 mmHg 91%
19:00 0°C° 0 mm 3 m/s 747 mmHg 91%
20:00 0°C° 0 mm 3 m/s 747 mmHg 91%
21:00 0°C° 0 mm 3 m/s 748 mmHg 91%
22:00 0°C° 0 mm 3 m/s 748 mmHg 91%
23:00 -1°C° 0 mm 3 m/s 748 mmHg 91%

Depois de amanhã, 26 Janeiro, Terça-feira

Tempo Temperatura Precipitação Vento Pressão Humidade
00:00 -1°C° 0 mm 3 m/s 748 mmHg 91%
01:00 -1°C° 0 mm 3 m/s 748 mmHg 92%
02:00 -1°C° 0 mm 3 m/s 749 mmHg 93%
03:00 -1°C° 0 mm 3 m/s 749 mmHg 94%
04:00 -1°C° 0 mm 3 m/s 749 mmHg 94%
05:00 0°C° 0 mm 3 m/s 749 mmHg 95%
06:00 +1°C° 0 mm 2 m/s 749 mmHg 95%
07:00 0°C° 0 mm 3 m/s 749 mmHg 95%
08:00 +1°C° 0 mm 3 m/s 749 mmHg 94%
09:00 +1°C° 0 mm 3 m/s 749 mmHg 93%
10:00 +1°C° 0 mm 4 m/s 749 mmHg 91%
11:00 +3°C° 0 mm 4 m/s 749 mmHg 89%
12:00 +3°C° 0 mm 5 m/s 749 mmHg 87%
13:00 +3°C° 0.1 mm 5 m/s 748 mmHg 87%
14:00 +3°C° 0.1 mm 5 m/s 747 mmHg 88%
15:00 +3°C° 0.1 mm 6 m/s 747 mmHg 89%
16:00 +3°C° 0.5 mm 6 m/s 746 mmHg 89%
17:00 +3°C° 0.5 mm 7 m/s 746 mmHg 90%
18:00 +2°C° 0.5 mm 8 m/s 746 mmHg 90%
19:00 +4°C° 0 mm 7 m/s 746 mmHg 91%
20:00 +4°C° 0 mm 7 m/s 746 mmHg 92%
21:00 +5°C° 0 mm 6 m/s 746 mmHg 93%
22:00 +5°C° 0 mm 6 m/s 746 mmHg 93%
23:00 +6°C° 0 mm 5 m/s 747 mmHg 93%

27 Janeiro, Quarta-feira

Tempo Temperatura Precipitação Vento Pressão Humidade
00:00 +6°C° 0 mm 5 m/s 747 mmHg 93%
01:00 +6°C° 0 mm 5 m/s 747 mmHg 93%
02:00 +5°C° 0 mm 4 m/s 748 mmHg 93%
03:00 +5°C° 0 mm 4 m/s 748 mmHg 94%
04:00 +5°C° 0 mm 4 m/s 748 mmHg 94%
05:00 +5°C° 0 mm 4 m/s 749 mmHg 94%
06:00 +5°C° 0 mm 3 m/s 749 mmHg 94%
07:00 +5°C° 0 mm 3 m/s 749 mmHg 93%
08:00 +7°C° 0 mm 3 m/s 750 mmHg 93%
09:00 +6°C° 0 mm 4 m/s 750 mmHg 93%
10:00 +6°C° 0 mm 4 m/s 750 mmHg 91%
11:00 +7°C° 0 mm 4 m/s 751 mmHg 88%
12:00 +7°C° 0 mm 4 m/s 751 mmHg 86%
13:00 +8°C° 0 mm 4 m/s 750 mmHg 86%
14:00 +8°C° 0 mm 4 m/s 750 mmHg 85%
15:00 +8°C° 0 mm 4 m/s 750 mmHg 84%
16:00 +8°C° 0 mm 4 m/s 750 mmHg 87%
17:00 +7°C° 0 mm 5 m/s 749 mmHg 90%
18:00 +7°C° 0 mm 5 m/s 749 mmHg 92%
19:00 +7°C° 0.1 mm 6 m/s 749 mmHg 92%
20:00 +7°C° 0.1 mm 6 m/s 748 mmHg 92%
21:00 +6°C° 0.1 mm 7 m/s 748 mmHg 92%
22:00 +8°C° 1.9 mm 7 m/s 747 mmHg 92%
23:00 +7°C° 1.9 mm 8 m/s 746 mmHg 93%

28 Janeiro, Quinta-feira

Tempo Temperatura Precipitação Vento Pressão Humidade
00:00 +7°C° 1.9 mm 8 m/s 746 mmHg 93%
01:00 +9°C° 0.3 mm 8 m/s 745 mmHg 91%
02:00 +9°C° 0.3 mm 8 m/s 745 mmHg 89%
03:00 +10°C° 0.3 mm 8 m/s 745 mmHg 87%
04:00 +9°C° 0 mm 8 m/s 745 mmHg 87%
05:00 +7°C° 0 mm 8 m/s 745 mmHg 87%
06:00 +6°C° 0 mm 7 m/s 745 mmHg 88%
07:00 +7°C° 0.1 mm 8 m/s 745 mmHg 87%
08:00 +7°C° 0.1 mm 8 m/s 745 mmHg 87%
09:00 +7°C° 0.1 mm 9 m/s 744 mmHg 86%
10:00 +8°C° 0.3 mm 9 m/s 745 mmHg 82%
11:00 +9°C° 0.3 mm 10 m/s 745 mmHg 77%
12:00 +11°C° 0.3 mm 10 m/s 745 mmHg 73%
13:00 +10°C° 0.1 mm 9 m/s 745 mmHg 71%
14:00 +10°C° 0.1 mm 8 m/s 746 mmHg 70%
15:00 +10°C° 0.1 mm 7 m/s 746 mmHg 69%
16:00 +9°C° 0 mm 6 m/s 746 mmHg 73%
17:00 +8°C° 0 mm 5 m/s 747 mmHg 77%
18:00 +7°C° 0 mm 4 m/s 747 mmHg 82%

29 Janeiro, Sexta-feira

Tempo Temperatura Precipitação Vento Pressão Humidade
Mostrar mais